Regional Weather Roundup
Issued by NWS

Home | Current Version | Previous Version | Text Only | Print | Product List | Glossary Off
Versions: 1 2 3 4 5 6 7 8 9 10 11 12 13 14 15 16 17 18 19 20 21 22 23 24 25 26 27 28 29 30 31 32 33 34 35 36 37 38 39 40 41 42 43 44 45 46 47 48 49 50

000
ASUS43 KDMX 291107
RWRIA

WEATHER ROUNDUP FOR IOWA
NATIONAL WEATHER SERVICE DES MOINES IA
600 AM CDT FRI MAY 29 2015

NOTE: "FAIR" INDICATES FEW OR NO CLOUDS BELOW 12,000 FEET WITH NO
SIGNIFICANT WEATHER AND/OR OBSTRUCTIONS TO VISIBILITY.

* - THESE STATIONS ARE NOT NWS STATIONS...THUS NOT UNDER NWS
QUALITY CONTROL.  THEY ALSO DO NOT REPORT WEATHER SUCH
AS PRECIPITATION OR FOG.

IAZ001>003-012>014-020>022-031>034-043>046-291200-
   NORTHWEST IOWA

CITY           SKY/WX    TMP DP  RH WIND       PRES   REMARKS
CARROLL *      CLEAR     63  63 100 S8        29.89R
CHEROKEE *     MOCLDY    64  64 100 SW7       29.87R
DENISON *      MOCLDY    64  64 100 S12       29.85S
LE MARS *      PTCLDY    66  64  94 CALM      29.85S
ORANGE CITY *  CLEAR     64  61  88 CALM      29.85F
SHELDON *      RAIN      66  64  94 S6        29.87R
SIOUX CITY     CLOUDY    66  62  87 S7        29.84S
SPENCER        CLOUDY    64  63  96 CALM      29.88R
STORM LAKE *   PTCLDY    63  63 100 S12       29.87F FOG
$$

IAZ055>058-069>071-079>083-090>094-291200-
   SOUTHWEST IOWA

CITY           SKY/WX    TMP DP  RH WIND       PRES   REMARKS
ATLANTIC *     MOCLDY    63  63 100 S9        29.91R
AUDUBON *      CLEAR     63  61  94 S7        29.90S
CLARINDA *     PTCLDY    64  64 100 S3        29.93R
COUNCIL BLFS * CLOUDY    64  64 100 S12       29.89S FOG
CRESTON *      PTCLDY    61  61 100 S10       29.93S FOG
HARLAN  *      CLOUDY    64  64 100 S12       29.92R
LAMONI         FOG       65  62  90 SE6       29.93F VSB 1/4
RED OAK *      CLOUDY    64  64 100 S8        29.90S
SHENANDOAH *   PTCLDY    64  64 100 S9        29.90S
$$

IAZ047>049-059>061-072>074-084-291200-
   CENTRAL IOWA

CITY           SKY/WX    TMP DP  RH WIND       PRES   REMARKS
AMES           MOCLDY    60  59  96 SE5       29.92F FOG
ANKENY *       FOG       61  61 100 SE3       29.93R VSB 1/4
CHARITON *       N/A     61  61 100 SW3       29.95R FOG
DES MOINES     PTCLDY    63  61  93 S7        29.92F
GRINNELL*      CLOUDY    64  61  88 S5        29.95R
KNOXVILLE *    CLOUDY    63  61  94 S5        29.93R
MARSHALLTOWN   PTCLDY    63  61  93 SW7       29.92S
PELLA *        CLOUDY    63  63 100 CALM      29.95R
PERRY *          N/A     63  61  94 S7        29.90F
$$

IAZ004>006-015-016-023>025-035-036-291200-
   NORTH CENTRAL IOWA

CITY           SKY/WX    TMP DP  RH WIND       PRES   REMARKS
ALGONA *       CLOUDY    66  64  94 SW5       29.91R
CLARION *      PTCLDY    63  61  94 S9        29.90F
ESTHERVILLE    LGT RAIN  64  61  90 S8        29.88R
FORT DODGE *   MOCLDY    63  59  88 S8        29.90F
MASON CITY     CLOUDY    64  62  93 S8        29.92R
FOREST CITY *  LGT RAIN  63  63 100 SW9       29.90S
IOWA FALLS *     N/A     61  61 100 S7        29.94S
$$

IAZ007>011-017>019-026>030-037>042-050>054-066-291200-
   NORTHEAST IOWA

CITY           SKY/WX    TMP DP  RH WIND       PRES   REMARKS
CEDAR RAPIDS   CLOUDY    64  64 100 S6        29.94S
CHARLES CITY * PTCLDY    63  63 100 S12       29.93S
CLINTON *      CLOUDY    64  61  88 SE6       29.99R
DECORAH *      MOCLDY    64  63  94 S7        29.93S
DUBUQUE        CLOUDY    64  61  90 CALM      29.97F
MONTICELLO *   CLOUDY    64  64 100 SE3       29.96R
OELWEIN *      CLOUDY    64  63  94 S7        29.96R
WATERLOO       MOCLDY    62  61  96 S6        29.93S
$$

IAZ064-065-067-068-078-291200-
   EAST CENTRAL IOWA

CITY           SKY/WX    TMP DP  RH WIND       PRES   REMARKS
DAVENPORT      CLOUDY    68  63  84 S7        29.97S
IOWA CITY      CLOUDY    65  62  90 SE5       29.96S
MT. PLEASANT * MOCLDY    64  64 100 SE7       29.95S
MUSCATINE *    CLOUDY    66  63  88 CALM      29.96R
QUAD CITIES    CLOUDY    67  62  84 S6        29.96S
$$

IAZ062-063-075>077-085>089-095>099-291200-
   SOUTHEAST IOWA

CITY           SKY/WX    TMP DP  RH WIND       PRES   REMARKS
BURLINGTON     MOCLDY    68  65  90 S6        29.95S
FAIRFIELD *    CLOUDY    64  63  94 CALM      29.95R
FORT MADISON * MOCLDY    66  64  94 SE9       29.96S
KEOKUK *       CLOUDY    66  66 100 S9        29.94S
OSKALOOSA *    CLOUDY    64  63  94 CALM      29.95R
CENTERVILLE *  CLEAR     63  63 100 S3        29.97R
OTTUMWA        CLOUDY    64  64 100 SE5       29.94R
WASHINGTON *   MOCLDY    64  64 100 E5        29.96S FOG
$$

ABBREVIATIONS USED IN REMARKS
   TC - TEMPERATURES IN CELSIUS
  WCI - WIND CHILL INDEX
   HX - HEAT INDEX
  VSB - VISIBILITY
$$




USA.gov is the U.S. government's official web portal to all federal, state and local government web resources and services.